Location: Caoba
(9.7667°N, 67.4833°W)
Time: 05:56:56
(UTC+00:00)

COSMOS 2428 - Pass Details

Date: 08 September 2024
Orbit: 843 x 857 km, 70.9° (Epoch: 09 October)

Event Time Altitude Azimuth Distance (km) Brightness Sun altitude
Rises 23:02:08 0° 184° (S) 3,393 5.8 -7.7°
Reaches altitude 10° 23:04:38 10° 179° (S) 2,460 5.1 -8.3°
Maximum altitude 23:10:05 50° 105° (ESE) 1,062 2.9 -9.6°
Drops below altitude 10° 23:15:33 10° 30° (NNE) 2,467 4.9 -10.9°
Sets 23:18:03 0° 25° (NNE) 3,405 5.7 -11.5°
